Weather in Rad'kovka

Russia / Belgorod Oblast     51˚05′52″N   36˚57′25″E
temp.,
°C
wind,
m/s
gust,
m/s
humid.,
%
clouds,
%
prec.,
mm/h
press.,
hPa
HPBL,
m
17 january, sun
sun1700:00−17˚w511943 0.0 1015315
03:00−19˚w48962 0.0 1015214
06:00−20˚w35970 0.0 1014117
09:00−20˚wnw34972 0.0 1015108
12:00−18˚nnw359428 0.0 1015213
15:00−16˚nw119153 0.0 1015175
18:00−18˚n339568 0.0 101660
21:00−18˚ne229584 0.0 101761
18 january, mon
mon1800:00−17˚ene2394100 0.0 1017149
03:00−17˚ene2295100 0.0 101774
06:00−17˚ne2495100 0.0 1017159
09:00−17˚ne2495100 0.0 1018168
12:00−15˚ne2291100 0.1 1018232
15:00−14˚ne1192100 0.1 1017197
18:00−17˚nne229695 0.0 101820
21:00−17˚ne229697 0.1 101945
19 january, tue
tue1900:00−19˚ne119751 0.0 101920
03:00−19˚nnw119767 0.0 101920
06:00−20˚nnw229791 0.0 101837
09:00−20˚nnw129795 0.1 101934
12:00−18˚nw239380 0.0 1019198
15:00−17˚nw249369 0.0 1018249
18:00−19˚wnw239671 0.0 101964
21:00−18˚wnw369685 0.0 1020197
20 january, wed
wed2000:00−19˚wnw339785 0.1 102061
03:00−20˚wnw349747 0.1 102276
06:00−20˚wnw35981 0.0 102287
09:00−20˚wnw33971 0.0 102460
12:00−17˚wnw34940 0.0 1025179
15:00−15˚w249420 0.0 1025236
18:00−17˚w239516 0.0 102621
21:00−17˚wsw23958 0.0 102721
21 january, thu
thu2100:00−17˚sw33930 0.0 102732
03:00−17˚ssw34940 0.0 102870
06:00−17˚ssw479542 0.0 1027124
09:00−16˚s599160 0.0 1026181
12:00−12˚ssw6118875 0.0 1025301
15:00−8˚ssw7139384 0.1 1023427
18:00−5˚ssw71495100 0.3 1022476
21:00−3˚sw61396100 1.0 1021507